Location: Perryvale
(54.4667°N, 113.3833°W)
Time: 19:12:06
(UTC+00:00)

Transit 2A - Pass Details

Date: 22 May 2024
Orbit: 592 x 959 km, 66.7° (Epoch: 19 June)

Event Time Altitude Azimuth Distance (km) Brightness Sun altitude
Rises 09:55:40 0° 284° (WNW) 3,114 9.0 -8.8°
Reaches altitude 10° 09:58:23 10° 299° (WNW) 2,260 8.4 -8.6°
Maximum altitude 10:02:33 24° 353° (N) 1,614 8.3 -8.2°
Drops below altitude 10° 10:07:02 10° 45° (NE) 2,464 10.3 -7.8°
Sets 10:10:08 0° 59° (ENE) 3,466 10.9 -7.6°
